Location: München
(48.1351°N, 11.5820°E)
Time: 04:07:54
(UTC+02:00)

ISS - Pass Details

Date: 23 May 2021
Orbit: 417 x 422 km, 51.6° (Epoch: 13 June)

Event Time Altitude Azimuth Distance (km) Brightness Sun altitude
Rises 23:46:26 0° 292° (WNW) 2,368 0.7 -18.6°
Reaches altitude 10° 23:48:32 10° 292° (WNW) 1,503 -0.4 -18.7°
Maximum altitude 23:51:55 89° 351° (N) 425 -3.9 -18.9°
Enters shadow 23:52:20 67° 112° (ESE) 460 -3.8 -18.9°
